Flag for Netherlands

Past Weather in 50°51'04.4"N, 5°41'26.6"E, Netherlands — Yesterday and Last 2 Weeks

Currently: 48 °F. Mostly cloudy. (Weather station: Maastricht Airport Zuid Limburg, Netherlands). See more current weather

Past Weather in 50°51'04.4"N, 5°41'26.6"E — Graph

°F

50°51'04.4"N, 5°41'26.6"E Temperature Yesterday

Maximum temperature yesterday: 45 °F (at 1:55 pm)
Minimum temperature yesterday: 39 °F (at 7:25 am)
Average temperature yesterday: 42 °F

High & Low Weather Summary for the Past Weeks

 TemperatureHumidityPressure
High61 °F (Feb 15, 12:55 pm)100% (Feb 10, 6:25 pm)30.51 "Hg (Feb 10, 6:25 pm)
Low36 °F (Feb 13, 12:25 am)59% (Feb 15, 4:55 pm)28.91 "Hg (Feb 22, 6:55 pm)
Average48 °F84%29.84 "Hg
* Reported Feb 10 3:25 pm — Feb 25 3:55 pm, 50°51'04.4"N, 5°41'26.6"E. Weather by CustomWeather, © 2024

Note: Actual official high and low records may vary slightly from our data, if they occured in-between our weather recording intervals... More about our weather records

50°51'04.4"N, 5°41'26.6"E Weather History for the Previous 24 Hours

Scroll right to see more
 ConditionsComfort  
Time TempWeatherWind HumidityBarometerVisibility
3:55 pm
Sun, Feb 25
48 °FMostly cloudy.8 mph62%29.50 "HgN/A
3:25 pm48 °FMostly cloudy.12 mph66%29.53 "HgN/A
2:55 pm50 °FPartly sunny.10 mph62%29.53 "HgN/A
1:55 pm46 °FBroken clouds.15 mph71%29.53 "HgN/A
1:25 pm48 °FScattered clouds.16 mph66%29.56 "HgN/A
12:55 pm46 °FPartly sunny.14 mph76%29.56 "HgN/A
12:25 pm46 °FMostly cloudy.16 mph71%29.56 "HgN/A
11:55 am48 °FPartly sunny.17 mph66%29.56 "HgN/A
11:25 am48 °FMostly cloudy.15 mph71%29.56 "HgN/A
10:55 am46 °FScattered clouds.15 mph76%29.59 "HgN/A
10:25 am45 °FCloudy.16 mph76%29.59 "HgN/A
9:55 am45 °FScattered clouds.16 mph76%29.56 "HgN/A
9:25 am43 °FPassing clouds.15 mph81%29.56 "HgN/A
8:55 am41 °FPassing clouds.16 mph87%29.56 "HgN/A
7:55 am39 °FClear.13 mph87%29.56 "HgN/A
7:25 am39 °FPassing clouds.13 mph93%29.56 "HgN/A
6:55 am39 °FMostly cloudy.13 mph93%29.56 "HgN/A
6:25 am41 °FPassing clouds.13 mph81%29.56 "HgN/A
5:55 am41 °FMostly cloudy.14 mph81%29.56 "HgN/A
5:25 am41 °FPartly cloudy.16 mph81%29.56 "HgN/A
4:55 am41 °FPassing clouds.15 mph87%29.56 "HgN/A
4:25 am41 °FPartly cloudy.15 mph87%29.53 "HgN/A
3:55 am41 °FOvercast.14 mph87%29.53 "HgN/A
3:25 am41 °FMostly cloudy.16 mph81%29.53 "HgN/A
2:55 am41 °FPassing clouds.17 mph81%29.53 "HgN/A
2:25 am41 °FMostly cloudy.17 mph81%29.56 "HgN/A
1:55 am41 °FMostly cloudy.20 mph81%29.56 "HgN/A
12:25 am43 °FMostly cloudy.14 mph71%29.53 "HgN/A
11:55 pm
Sat, Feb 24
43 °FPassing clouds.13 mph71%29.56 "HgN/A
11:25 pm43 °FPassing clouds.12 mph71%29.56 "HgN/A
10:55 pm43 °FPassing clouds.13 mph71%29.56 "HgN/A
10:25 pm43 °FClear.14 mph71%29.56 "HgN/A
9:55 pm43 °FClear.13 mph71%29.56 "HgN/A
9:25 pm43 °FClear.14 mph71%29.59 "HgN/A
8:55 pm43 °FClear.14 mph71%29.59 "HgN/A
8:25 pm41 °FClear.12 mph76%29.59 "HgN/A
7:55 pm41 °FClear.12 mph76%29.59 "HgN/A
7:25 pm41 °FClear.12 mph76%29.59 "HgN/A
6:55 pm41 °FClear.10 mph76%29.59 "HgN/A
6:25 pm41 °FClear.9 mph76%29.59 "HgN/A
5:55 pm43 °FPartly sunny.12 mph71%29.56 "HgN/A
5:25 pm43 °FMore clouds than sun.14 mph66%29.56 "HgN/A
Weather by CustomWeather, © 2024

See weather overview